Time,TemperatureF,DewpointF,PressureIn,WindDirection,WindDirectionDegrees,WindSpeedMPH,WindSpeedGustMPH,Humidity,HourlyPrecipIn,Conditions,Clouds,dailyrainin,SolarRadiationWatts/m^2,SoftwareType,DateUTC
2013-08-06 00:00:00,63.0,62.0,-100.00,SSW,202,2.0,-999.0,98,-99.99,,,-99.99,0.000000,,2013-08-06 05:00:00,
2013-08-06 00:32:00,63.0,62.0,-100.00,SSW,202,2.0,-999.0,98,-99.99,,,-99.99,0.000000,,2013-08-06 05:32:00,
2013-08-06 00:43:00,63.0,62.0,-100.00,SSW,202,2.0,-999.0,98,-99.99,,,-99.99,0.000000,,2013-08-06 05:43:00,
2013-08-06 00:53:00,63.0,62.0,-100.00,SSW,202,2.0,-999.0,98,-99.99,,,-99.99,0.000000,,2013-08-06 05:53:00,
2013-08-06 01:00:00,62.0,62.0,-100.00,SSW,202,2.0,-999.0,98,-99.99,,,-99.99,0.000000,,2013-08-06 06:00:00,
2013-08-06 01:43:00,62.0,62.0,-100.00,SSW,202,2.0,-999.0,98,-99.99,,,-99.99,0.000000,,2013-08-06 06:43:00,
2013-08-06 01:52:00,62.0,62.0,-100.00,SSW,202,2.0,-999.0,98,-99.99,,,-99.99,0.000000,,2013-08-06 06:52:00,
2013-08-06 02:00:00,61.0,60.0,-100.00,South,180,1.0,-999.0,98,-99.99,,,-99.99,0.000000,,2013-08-06 07:00:00,
2013-08-06 02:32:00,61.0,60.0,-100.00,South,180,1.0,-999.0,98,-99.99,,,-99.99,0.000000,,2013-08-06 07:32:00,
2013-08-06 02:44:00,61.0,60.0,-100.00,South,180,1.0,-999.0,98,-99.99,,,-99.99,0.000000,,2013-08-06 07:44:00,
2013-08-06 02:53:00,61.0,60.0,-100.00,South,180,1.0,-999.0,98,-99.99,,,-99.99,0.000000,,2013-08-06 07:53:00,
2013-08-06 03:00:00,59.0,59.0,-100.00,SSW,202,0.0,-999.0,99,-99.99,,,-99.99,0.000000,,2013-08-06 08:00:00,
2013-08-06 03:43:00,59.0,59.0,-100.00,SSW,202,0.0,-999.0,99,-99.99,,,-99.99,0.000000,,2013-08-06 08:43:00,
2013-08-06 03:52:00,59.0,59.0,-100.00,SSW,202,0.0,-999.0,99,-99.99,,,-99.99,0.000000,,2013-08-06 08:52:00,
2013-08-06 04:00:00,60.0,60.0,-100.00,South,180,0.0,-999.0,99,-99.99,,,-99.99,0.000000,,2013-08-06 09:00:00,
2013-08-06 04:43:00,60.0,60.0,-100.00,South,180,0.0,-999.0,99,-99.99,,,-99.99,0.000000,,2013-08-06 09:43:00,
2013-08-06 04:52:00,60.0,60.0,-100.00,South,180,0.0,-999.0,99,-99.99,,,-99.99,0.000000,,2013-08-06 09:52:00,
2013-08-06 05:00:00,60.0,60.0,-100.00,SSW,202,2.0,-999.0,99,-99.99,,,-99.99,0.000000,,2013-08-06 10:00:00,
2013-08-06 05:43:00,60.0,60.0,-100.00,SSW,202,2.0,-999.0,99,-99.99,,,-99.99,0.000000,,2013-08-06 10:43:00,
2013-08-06 05:53:00,60.0,60.0,-100.00,SSW,202,2.0,-999.0,99,-99.99,,,-99.99,0.000000,,2013-08-06 10:53:00,
2013-08-06 06:00:00,60.0,60.0,-100.00,SSW,202,1.0,-999.0,98,-99.99,,,-99.99,2.320000,,2013-08-06 11:00:00,
2013-08-06 06:43:00,60.0,60.0,-100.00,SSW,202,1.0,-999.0,98,-99.99,,,-99.99,2.320000,,2013-08-06 11:43:00,
2013-08-06 06:53:00,60.0,60.0,-100.00,SSW,202,1.0,-999.0,98,-99.99,,,-99.99,2.320000,,2013-08-06 11:53:00,
2013-08-06 07:00:00,61.0,61.0,-100.00,South,180,0.0,-999.0,98,-99.99,,,-99.99,53.360001,,2013-08-06 12:00:00,
2013-08-06 07:43:00,61.0,61.0,-100.00,South,180,0.0,-999.0,98,-99.99,,,-99.99,53.360001,,2013-08-06 12:43:00,
2013-08-06 07:52:00,61.0,61.0,-100.00,South,180,0.0,-999.0,98,-99.99,,,-99.99,53.360001,,2013-08-06 12:52:00,
2013-08-06 08:00:00,64.0,63.0,-100.00,SSW,202,3.0,-999.0,94,-99.99,,,-99.99,200.679993,,2013-08-06 13:00:00,
2013-08-06 08:32:00,64.0,63.0,-100.00,SSW,202,3.0,-999.0,94,-99.99,,,-99.99,200.679993,,2013-08-06 13:32:00,
2013-08-06 08:42:00,64.0,63.0,-100.00,SSW,202,3.0,-999.0,94,-99.99,,,-99.99,200.679993,,2013-08-06 13:42:00,
2013-08-06 08:53:00,64.0,63.0,-100.00,SSW,202,3.0,-999.0,94,-99.99,,,-99.99,200.679993,,2013-08-06 13:53:00,
2013-08-06 09:00:00,68.0,64.0,-100.00,South,180,2.0,-999.0,87,-99.99,,,-99.99,344.519989,,2013-08-06 14:00:00,
2013-08-06 09:42:00,68.0,64.0,-100.00,South,180,2.0,-999.0,87,-99.99,,,-99.99,344.519989,,2013-08-06 14:42:00,
2013-08-06 09:53:00,68.0,64.0,-100.00,South,180,2.0,-999.0,87,-99.99,,,-99.99,344.519989,,2013-08-06 14:53:00,
2013-08-06 10:00:00,67.0,63.0,-100.00,WSW,247,3.0,-999.0,87,-99.99,,,-99.99,120.639999,,2013-08-06 15:00:00,
2013-08-06 10:44:00,67.0,63.0,-100.00,WSW,247,3.0,-999.0,87,-99.99,,,-99.99,120.639999,,2013-08-06 15:44:00,
2013-08-06 10:52:00,67.0,63.0,-100.00,WSW,247,3.0,-999.0,87,-99.99,,,-99.99,120.639999,,2013-08-06 15:52:00,
2013-08-06 11:00:00,69.0,64.0,-100.00,SW,225,3.0,-999.0,85,-99.99,,,-99.99,263.320007,,2013-08-06 16:00:00,
2013-08-06 11:43:00,69.0,64.0,-100.00,SW,225,3.0,-999.0,85,-99.99,,,-99.99,263.320007,,2013-08-06 16:43:00,
2013-08-06 11:52:00,69.0,64.0,-100.00,SW,225,3.0,-999.0,85,-99.99,,,-99.99,263.320007,,2013-08-06 16:52:00,
2013-08-06 12:00:00,69.0,65.0,-100.00,WSW,247,4.0,-999.0,84,-99.99,,,-99.99,235.479996,,2013-08-06 17:00:00,
2013-08-06 12:32:00,69.0,65.0,-100.00,WSW,247,4.0,-999.0,84,-99.99,,,-99.99,235.479996,,2013-08-06 17:32:00,
2013-08-06 12:44:00,69.0,65.0,-100.00,WSW,247,4.0,-999.0,84,-99.99,,,-99.99,235.479996,,2013-08-06 17:44:00,
2013-08-06 12:52:00,69.0,65.0,-100.00,WSW,247,4.0,-999.0,84,-99.99,,,-99.99,235.479996,,2013-08-06 17:52:00,
2013-08-06 13:00:00,71.0,65.0,-100.00,SW,225,4.0,-999.0,80,-99.99,,,-99.99,363.079987,,2013-08-06 18:00:00,
2013-08-06 13:32:00,71.0,65.0,-100.00,SW,225,4.0,-999.0,80,-99.99,,,-99.99,363.079987,,2013-08-06 18:32:00,
2013-08-06 13:44:00,71.0,65.0,-100.00,SW,225,4.0,-999.0,80,-99.99,,,-99.99,363.079987,,2013-08-06 18:44:00,
2013-08-06 13:52:00,71.0,65.0,-100.00,SW,225,4.0,-999.0,80,-99.99,,,-99.99,363.079987,,2013-08-06 18:52:00,
2013-08-06 14:00:00,71.0,65.0,-100.00,SSW,202,3.0,-999.0,81,-99.99,,,-99.99,241.279999,,2013-08-06 19:00:00,
2013-08-06 14:42:00,71.0,65.0,-100.00,SSW,202,3.0,-999.0,81,-99.99,,,-99.99,241.279999,,2013-08-06 19:42:00,
2013-08-06 14:52:00,71.0,65.0,-100.00,SSW,202,3.0,-999.0,81,-99.99,,,-99.99,241.279999,,2013-08-06 19:52:00,
2013-08-06 15:00:00,72.0,65.0,-100.00,South,180,2.0,-999.0,79,-99.99,,,-99.99,365.399994,,2013-08-06 20:00:00,
2013-08-06 15:44:00,72.0,65.0,-100.00,South,180,2.0,-999.0,79,-99.99,,,-99.99,365.399994,,2013-08-06 20:44:00,
2013-08-06 15:52:00,72.0,65.0,-100.00,South,180,2.0,-999.0,79,-99.99,,,-99.99,365.399994,,2013-08-06 20:52:00,
2013-08-06 16:00:00,74.0,65.0,-100.00,South,180,4.0,-999.0,75,-99.99,,,-99.99,557.960022,,2013-08-06 21:00:00,
2013-08-06 16:43:00,74.0,65.0,-100.00,South,180,4.0,-999.0,75,-99.99,,,-99.99,557.960022,,2013-08-06 21:43:00,
2013-08-06 16:52:00,74.0,65.0,-100.00,South,180,4.0,-999.0,75,-99.99,,,-99.99,557.960022,,2013-08-06 21:52:00,
2013-08-06 17:00:00,73.0,65.0,-100.00,South,180,4.0,-999.0,76,-99.99,,,-99.99,307.399994,,2013-08-06 22:00:00,
2013-08-06 17:43:00,73.0,65.0,-100.00,South,180,4.0,-999.0,76,-99.99,,,-99.99,307.399994,,2013-08-06 22:43:00,
2013-08-06 17:53:00,73.0,65.0,-100.00,South,180,4.0,-999.0,76,-99.99,,,-99.99,307.399994,,2013-08-06 22:53:00,
2013-08-06 18:00:00,72.0,65.0,-100.00,South,180,4.0,-999.0,77,-99.99,,,-99.99,308.559998,,2013-08-06 23:00:00,
2013-08-06 18:33:00,72.0,65.0,-100.00,South,180,4.0,-999.0,77,-99.99,,,-99.99,308.559998,,2013-08-06 23:33:00,
2013-08-06 18:43:00,72.0,65.0,-100.00,South,180,4.0,-999.0,77,-99.99,,,-99.99,308.559998,,2013-08-06 23:43:00,
2013-08-06 18:52:00,72.0,65.0,-100.00,South,180,4.0,-999.0,77,-99.99,,,-99.99,308.559998,,2013-08-06 23:52:00,
2013-08-06 19:00:00,71.0,65.0,-100.00,South,180,3.0,-999.0,80,-99.99,,,-99.99,211.119995,,2013-08-07 00:00:00,
2013-08-06 19:43:00,71.0,65.0,-100.00,South,180,3.0,-999.0,80,-99.99,,,-99.99,211.119995,,2013-08-07 00:43:00,
2013-08-06 19:52:00,71.0,65.0,-100.00,South,180,3.0,-999.0,80,-99.99,,,-99.99,211.119995,,2013-08-07 00:52:00,
2013-08-06 20:00:00,68.0,64.0,-100.00,South,180,2.0,-999.0,86,-99.99,,,-99.99,49.880001,,2013-08-07 01:00:00,
2013-08-06 20:32:00,68.0,64.0,-100.00,South,180,2.0,-999.0,86,-99.99,,,-99.99,49.880001,,2013-08-07 01:32:00,
2013-08-06 20:43:00,68.0,64.0,-100.00,South,180,2.0,-999.0,86,-99.99,,,-99.99,49.880001,,2013-08-07 01:43:00,
2013-08-06 20:52:00,68.0,64.0,-100.00,South,180,2.0,-999.0,86,-99.99,,,-99.99,49.880001,,2013-08-07 01:52:00,
2013-08-06 21:00:00,66.0,64.0,-100.00,South,180,1.0,-999.0,95,-99.99,,,-99.99,1.160000,,2013-08-07 02:00:00,
2013-08-06 21:43:00,66.0,64.0,-100.00,South,180,1.0,-999.0,95,-99.99,,,-99.99,1.160000,,2013-08-07 02:43:00,
2013-08-06 21:53:00,66.0,64.0,-100.00,South,180,1.0,-999.0,95,-99.99,,,-99.99,1.160000,,2013-08-07 02:53:00,
2013-08-06 22:00:00,65.0,65.0,-100.00,South,180,1.0,-999.0,98,-99.99,,,-99.99,0.000000,,2013-08-07 03:00:00,
2013-08-06 22:32:00,65.0,65.0,-100.00,South,180,1.0,-999.0,98,-99.99,,,-99.99,0.000000,,2013-08-07 03:32:00,
2013-08-06 22:43:00,65.0,65.0,-100.00,South,180,1.0,-999.0,98,-99.99,,,-99.99,0.000000,,2013-08-07 03:43:00,
2013-08-06 22:52:00,65.0,65.0,-100.00,South,180,1.0,-999.0,98,-99.99,,,-99.99,0.000000,,2013-08-07 03:52:00,
2013-08-06 23:00:00,66.0,65.0,-100.00,South,180,1.0,-999.0,99,-99.99,,,-99.99,0.000000,,2013-08-07 04:00:00,
2013-08-06 23:33:00,66.0,65.0,-100.00,South,180,1.0,-999.0,99,-99.99,,,-99.99,0.000000,,2013-08-07 04:33:00,
2013-08-06 23:43:00,66.0,65.0,-100.00,South,180,1.0,-999.0,99,-99.99,,,-99.99,0.000000,,2013-08-07 04:43:00,
2013-08-06 23:52:00,66.0,65.0,-100.00,South,180,1.0,-999.0,99,-99.99,,,-99.99,0.000000,,2013-08-07 04:52:00,